Погода в Красном Яре

Россия / Волгоградская область     50°41′52″N   44°43′51″E
темп.,
°C
ветер,
м/с
пор.,
м/с
влажн.,
%
обл.,
%
осадки,
мм/ч
давл.,
гПа
погр.,
м
11 апреля, вс
вс1100:00+4с4898100 0.0 1021217
03:00+4с4798100 0.0 1022243
06:00+4ссв4898100 0.0 1022252
09:00+8св4591100 0.0 1023270
12:00+14всв4571100 0.0 1023498
15:00+16в5668100 0.0 1023663
18:00+13св3683100 0.0 1023126
21:00+11всв358255 0.0 102464
12 апреля, пн
пн1200:00+11в338083 0.0 102517
03:00+11в33775 0.0 102521
06:00+10в34705 0.0 102649
09:00+16вюв6104613 0.0 1027393
12:00+19вюв81041100 0.0 1027991
15:00+21вюв71034100 0.0 10271569
18:00+17вюв494894 0.0 1027155
21:00+12в4857100 0.0 1028111
13 апреля, вт
вт1300:00+10в4125769 0.0 1028215
03:00+9вюв513625 0.0 1028228
06:00+8вюв412655 0.0 1028193
09:00+15вюв710445 0.0 1028398
12:00+19вюв793395 0.0 1028896
15:00+20вюв78290 0.0 10271331
18:00+16вюв47450 0.0 1026129
21:00+12в46530 0.0 102775
14 апреля, ср
ср1400:00+11в411618 0.0 1026170
03:00+9в4106497 0.0 1025137
06:00+9в4106617 0.0 1024164
09:00+15вюв610448 0.0 1024455
12:00+18вюв78375 0.0 10231103
15:00+20юв68308 0.0 10211754
18:00+17вюв364582 0.0 102098
21:00+13в4754100 0.0 1020101
15 апреля, чт
чт1500:00+12в41056100 0.0 1019168
03:00+10вюв41162100 0.0 1019191
06:00+9в411681 0.0 1018194
09:00+16вюв710485 0.0 1017573
12:00+19ююв67365 0.0 10161387
15:00+20ю453197 0.0 10142158
18:00+18ю2346100 0.0 101335
21:00+15св016093 0.0 101411